TimeEST,TemperatureF,Dew PointF,Humidity,Sea Level PressureIn,VisibilityMPH,Wind Direction,Wind SpeedMPH,Gust SpeedMPH,PrecipitationIn,Events,Conditions,WindDirDegrees,DateUTC
12:56 AM,36.0,25.0,64,30.19,10.0,Calm,Calm,-,N/A,,Overcast,0,2012-11-06 05:56:00
1:56 AM,36.0,25.0,64,30.19,10.0,Calm,Calm,-,N/A,,Overcast,0,2012-11-06 06:56:00
2:56 AM,37.0,23.0,57,30.18,10.0,Calm,Calm,-,N/A,,Overcast,0,2012-11-06 07:56:00
3:56 AM,35.1,23.0,61,30.18,10.0,East,6.9,-,N/A,,Overcast,80,2012-11-06 08:56:00
4:56 AM,35.1,21.9,59,30.19,10.0,East,4.6,-,N/A,,Overcast,80,2012-11-06 09:56:00
5:56 AM,35.1,21.0,57,30.20,10.0,Calm,Calm,-,N/A,,Overcast,0,2012-11-06 10:56:00
6:56 AM,34.0,21.0,59,30.21,10.0,Calm,Calm,-,N/A,,Overcast,0,2012-11-06 11:56:00
7:56 AM,35.1,21.9,59,30.23,10.0,Calm,Calm,-,N/A,,Mostly Cloudy,0,2012-11-06 12:56:00
8:56 AM,36.0,19.9,52,30.23,10.0,ESE,8.1,-,N/A,,Mostly Cloudy,110,2012-11-06 13:56:00
9:56 AM,39.0,19.9,46,30.22,10.0,ESE,5.8,-,N/A,,Scattered Clouds,110,2012-11-06 14:56:00
10:56 AM,39.0,19.9,46,30.22,10.0,SE,4.6,-,N/A,,Clear,140,2012-11-06 15:56:00
11:56 AM,41.0,21.9,47,30.19,10.0,South,8.1,-,N/A,,Partly Cloudy,170,2012-11-06 16:56:00
12:56 PM,42.1,21.0,43,30.16,10.0,South,3.5,-,N/A,,Clear,180,2012-11-06 17:56:00
1:56 PM,43.0,21.9,43,30.13,10.0,South,3.5,-,N/A,,Partly Cloudy,170,2012-11-06 18:56:00
2:56 PM,43.0,23.0,45,30.12,10.0,Calm,Calm,-,N/A,,Partly Cloudy,0,2012-11-06 19:56:00
3:56 PM,41.0,21.9,47,30.10,10.0,SE,4.6,-,N/A,,Partly Cloudy,130,2012-11-06 20:56:00
4:56 PM,37.4,23.0,56,30.10,10.0,ESE,5.8,-,N/A,,Partly Cloudy,110,2012-11-06 21:56:00
5:56 PM,37.9,24.1,57,30.11,10.0,ENE,5.8,-,N/A,,Scattered Clouds,70,2012-11-06 22:56:00
6:56 PM,37.0,24.1,59,30.10,10.0,Calm,Calm,-,N/A,,Mostly Cloudy,0,2012-11-06 23:56:00
7:56 PM,37.0,25.0,62,30.09,10.0,Calm,Calm,-,N/A,,Mostly Cloudy,0,2012-11-07 00:56:00
8:56 PM,34.0,25.0,70,30.09,10.0,Calm,Calm,-,N/A,,Mostly Cloudy,0,2012-11-07 01:56:00
9:56 PM,35.1,27.0,72,30.09,10.0,Calm,Calm,-,N/A,,Overcast,0,2012-11-07 02:56:00
10:56 PM,37.0,25.0,62,30.08,10.0,Calm,Calm,-,N/A,,Overcast,0,2012-11-07 03:56:00
11:56 PM,36.0,24.1,62,30.06,10.0,Calm,Calm,-,N/A,,Overcast,0,2012-11-07 04:56:00